Fullerton, CA

1:12 PM PDT on June 25, 2017 (GMT -0700)
Fullerton Municipal

Weather History for KFUL - December, 2014

Change the Weather History Date:

Saturday, December 27, 2014

  Actual Average Record
Temperature  
Mean Temperature 55 °F 56 °F  
Max Temperature 64 °F 67 °F 85 °F (2013)
Min Temperature 45 °F 44 °F 34 °F (2008)
Degree Days  
Heating Degree Days 10 9  
Month to date heating degree days 117 237  
Since 1 July heating degree days 141 401  
Cooling Degree Days 0 0  
Month to date cooling degree days 4 0  
Year to date cooling degree days 2113 1251  
Growing Degree Days 4 (Base 50)    
Moisture  
Dew Point 20 °F    
Average Humidity 26    
Maximum Humidity 37    
Minimum Humidity 15    
Precipitation  
Precipitation 0.00 in 0.12 in 0.19 in (2006)
Month to date precipitation 3.09 1.50  
Year to date precipitation 7.33 13.33  
Since 1 July precipitation 3.87  
Snow  
Snow 0.00 in - - ()
Month to date snowfall 0.0  
Year to date snowfall 0.0  
Snow Depth 0.00 in    
Sea Level Pressure  
Sea Level Pressure 30.28 in    
Wind  
Wind Speed 7 mph (NE)    
Max Wind Speed 21 mph    
Max Gust Speed 27 mph    
Visibility 10 miles    
Events      
T = Trace of Precipitation, MM = Missing Value Source: NWS Daily Summary

Daily Weather History Graph

Daily Weather History Graph

Search for Another Location

Airport or City:

Trip Planner

Search our weather history database for the weather conditions in past years. The results will help you decide how hot, cold, wet, or windy it might be!

Date:

Astronomy

Dec. 27, 2014 Rise Set
Actual Time 6:55 AM PST 4:50 PM PST
Civil Twilight 6:27 AM PST 5:18 PM PST
Nautical Twilight 5:56 AM PST 5:49 PM PST
Astronomical Twilight 5:26 AM PST 6:19 PM PST
Moon 11:02 AM PST (12/27) 11:27 PM PST (12/27)
Length of Visible Light 10h 50m
Length of Day
9h 54m
Waxing Crescent, 39% of the Moon is Illuminated
Dec 27
Waxing Crescent
Dec 28
First Quarter
Jan 4
Full
Jan 13
Last Quarter
Jan 20
New

Hourly Weather History & Observations

Time (PST) Temp. Windchill Dew Point Humidity Pressure Visibility Wind Dir Wind Speed Gust Speed Precip Events Conditions
12:53 AM 54.0 °F - 14.0 °F 21% 30.20 in 10.0 mi East 15.0 mph 21.9 mph N/A   Clear
1:53 AM 54.0 °F - 14.0 °F 21% 30.20 in 10.0 mi East 18.4 mph 24.2 mph N/A   Clear
2:53 AM 53.1 °F - 14.0 °F 21% 30.22 in 10.0 mi East 16.1 mph 21.9 mph N/A   Clear
3:53 AM 52.0 °F - 15.1 °F 23% 30.22 in 10.0 mi East 12.7 mph - N/A   Clear
4:53 AM 48.9 °F - 17.1 °F 28% 30.24 in 10.0 mi Calm Calm - N/A   Clear
5:53 AM 46.0 °F 43.9 °F 19.0 °F 34% 30.26 in 10.0 mi North 4.6 mph - N/A   Clear
6:53 AM 45.0 °F 43.5 °F 19.0 °F 36% 30.27 in 10.0 mi NNE 3.5 mph - N/A   Clear
7:53 AM 51.1 °F - 15.1 °F 24% 30.28 in 10.0 mi ENE 3.5 mph - N/A   Clear
8:53 AM 54.0 °F - 18.0 °F 24% 30.31 in 10.0 mi Calm Calm - N/A   Clear
9:53 AM 60.1 °F - 12.9 °F 16% 30.32 in 10.0 mi East 5.8 mph - N/A   Clear
10:53 AM 61.0 °F - 12.9 °F 15% 30.31 in 10.0 mi Calm Calm - N/A   Clear
11:53 AM 62.1 °F - 17.1 °F 18% 30.30 in 10.0 mi WNW 6.9 mph - N/A   Clear
12:53 PM 63.0 °F - 15.1 °F 16% 30.27 in 10.0 mi Variable 5.8 mph - N/A   Clear
1:53 PM 63.0 °F - 15.1 °F 16% 30.27 in 10.0 mi Variable 5.8 mph - N/A   Clear
2:53 PM 63.0 °F - 15.1 °F 16% 30.27 in 10.0 mi Variable 3.5 mph - N/A   Clear
3:53 PM 62.1 °F - 12.9 °F 15% 30.28 in 10.0 mi NW 3.5 mph - N/A   Clear
4:53 PM 59.0 °F - 17.1 °F 20% 30.29 in 10.0 mi WNW 3.5 mph - N/A   Clear
5:53 PM 55.9 °F - 25.0 °F 30% 30.30 in 10.0 mi WNW 4.6 mph - N/A   Clear
6:53 PM 53.1 °F - 28.9 °F 40% 30.32 in 10.0 mi Calm Calm - N/A   Clear
7:53 PM 50.0 °F - 32.0 °F 50% 30.32 in 10.0 mi Calm Calm - N/A   Clear
8:53 PM 48.0 °F - 32.0 °F 54% 30.32 in 10.0 mi East 5.8 mph - N/A   Clear
9:53 PM 48.0 °F - 30.9 °F 52% 30.32 in 10.0 mi East 3.5 mph - N/A   Clear
10:53 PM 46.0 °F - 33.1 °F 61% 30.31 in 10.0 mi Calm Calm - N/A   Clear
11:53 PM 46.9 °F - 30.9 °F 54% 30.30 in 10.0 mi East 5.8 mph - N/A   Clear